Powrót do katalogu

ONEWEB-0006

AktywnyŁącznośćPO
NORAD 44061·PAYLOAD·🇬🇧 United Kingdom

Wystrzelony Feb 27, 2019 z Guiana Space Centre

Loading…

Następne Przeloty (najbliższe 24 godziny)

TLE

ŚwieżeSource: CelesTrak SupGP

Epoka: Sep 14, 2026, 22:53 UTC

1 44061C 19010E   26257.95397405  .00000408  00000+0  10863-2 0  2578
2 44061  87.8995 241.2930 0001890  84.3483 348.9147 13.15553506    13

Śledź ONEWEB-0006 w czasie rzeczywistym z AllMySat

Download on the App Store